Date,TemperatureHighF,TemperatureAvgF,TemperatureLowF,DewpointHighF,DewpointAvgF,DewpointLowF,HumidityHigh,HumidityAvg,HumidityLow,PressureMaxIn,PressureMinIn,WindSpeedMaxMPH,WindSpeedAvgMPH,GustSpeedMaxMPH,PrecipitationSumIn
2014-1-1,31,28,20,-100,-100,-100,0,0,100,0.00,40.00,0,-999,0,0.01
2014-1-2,36,27,20,-100,-100,-100,0,0,100,0.00,40.00,0,-999,0,0.00
2014-1-3,35,33,30,-100,-100,-100,0,0,100,0.00,40.00,0,-999,0,0.00
2014-1-4,23,21,20,-100,-100,-100,0,0,100,0.00,40.00,0,-999,0,0.01
2014-1-5,22,18,10,-100,-100,-100,0,0,100,0.00,40.00,0,-999,0,0.00
2014-1-6,10,10,10,-100,-100,-100,0,0,100,0.00,40.00,0,-999,0,0.00
2014-1-11,32,32,32,-100,-100,-100,0,0,100,0.00,40.00,0,-999,0,0.00
2014-1-12,30,28,27,-100,-100,-100,0,0,100,0.00,40.00,0,-999,0,0.00
2014-1-13,35,34,33,-100,-100,-100,0,0,100,0.00,40.00,0,-999,0,0.02
2014-1-14,36,32,25,-100,-100,-100,0,0,100,0.00,40.00,0,-999,0,0.00
2014-1-15,37,28,19,-100,-100,-100,0,0,100,0.00,40.00,0,-999,0,0.00
2014-1-16,31,25,21,-100,-100,-100,0,0,100,0.00,40.00,0,-999,0,0.00
2014-1-17,34,25,21,-100,-100,-100,0,0,100,0.00,40.00,0,-999,0,0.00
2014-1-18,32,23,18,-100,-100,-100,0,0,100,0.00,40.00,0,-999,0,0.00
2014-1-19,40,30,21,-100,-100,-100,0,0,100,0.00,40.00,0,-999,0,0.00
2014-1-20,25,22,20,-100,-100,-100,0,0,100,0.00,40.00,0,-999,0,0.00
2014-1-21,25,20,18,-100,-100,-100,0,0,100,0.00,40.00,0,-999,0,0.00
2014-1-22,38,32,26,-100,-100,-100,0,0,100,0.00,40.00,0,-999,0,0.00
2014-1-26,39,31,22,-100,-100,-100,0,0,100,0.00,40.00,0,-999,0,0.00
2014-1-27,25,25,25,-100,-100,-100,0,0,100,0.00,40.00,0,-999,0,0.00
2014-1-28,29,29,29,-100,-100,-100,0,0,100,0.00,40.00,0,-999,0,0.00
2014-1-29,34,32,30,-100,-100,-100,0,0,100,0.00,40.00,0,-999,0,0.00
2014-1-31,27,25,23,-100,-100,-100,0,0,100,0.00,40.00,0,-999,0,0.01